Location: Cuzcurrita-R�o Tir�n
(42.5415°N, 2.9642°W)
Time: 18:53:35
(UTC+00:00)

Meteor 2-1 Rocket - Pass Details

Date: 17 January 2021
Orbit: 827 x 910 km, 81.3° (Epoch: 02 March)

Event Time Altitude Azimuth Distance (km) Brightness Sun altitude
Rises 19:01:09 0° 352° (N) 3,426 7.4 -20.8°
Reaches altitude 10° 19:03:37 10° 355° (N) 2,475 6.6 -21.2°
Maximum altitude 19:09:12 69° 79° (ENE) 893 4.0 -22.2°
Drops below altitude 10° 19:14:40 10° 162° (SSE) 2,426 6.5 -23.2°
Sets 19:17:03 0° 165° (SSE) 3,352 7.2 -23.7°
